Back to catalog

CZ-6A DEB

AlivePO
NORAD 61293·DEBRIS·🇨🇳 China

Launched Aug 6, 2024 from Taiyuan Satellite Launch Center

Loading…

Next Passes (next 24 hours)

TLE

FreshSource: Space-Track

Epoch: Sep 14, 2026, 06:56 UTC

1 61293U 24140TE  26257.28946248  .00003733  00000-0  69719-3 0  9998
2 61293  89.0367 263.1394 0087844 311.2185  48.1479 14.62284813108760

Track CZ-6A DEB in real time with AllMySat

Download on the App Store